Location: Callao
(39.8979°N, 113.7141°W)
Time: 13:23:56
(UTC+00:00)

N. Korean satellite - Visible Passes

Search period start: 08 March 2021 00:00
Search period end: 18 March 2021 00:00
Orbit: 451 x 502 km, 97.2° (Epoch: 07 March)

Date Brightness Start Highest point End Pass type
(mag) Time Alt. Az. Time Alt. Az. Time Alt. Az.
08 Mar 8.0 12:37:38 10° NNE 12:41:02 41° E 12:44:29 10° S visible
09 Mar 9.5 12:11:33 10° NE 12:14:10 19° E 12:16:48 10° SE visible
10 Mar 6.7 13:17:14 10° N 13:20:44 54° WNW 13:24:18 10° SSW visible
11 Mar 7.1 12:50:24 10° NNE 12:54:00 63° E 12:57:36 10° S visible
12 Mar 8.8 12:24:00 10° NE 12:27:08 27° E 12:30:18 10° SSE visible
13 Mar 9.9 11:58:26 10° ENE 12:00:11 13° E 12:01:56 10° ESE visible
14 Mar 6.5 13:03:13 10° N 13:06:52 84° WNW 13:10:32 10° SSW visible
15 Mar 8.1 12:36:34 10° NNE 12:40:03 40° E 12:43:31 10° S visible
16 Mar 9.5 12:10:28 10° NE 12:13:07 19° E 12:15:46 10° SE visible
17 Mar 6.7 13:16:05 10° N 13:19:40 55° WNW 13:23:16 10° SSW visible
